Ainsworth, NE

8:00 PM CDT on October 16, 2017 (GMT -0500)
Ainsworth Municipal

Weather History for KANW - January, 2014

Change the Weather History Date:

Wednesday, January 8, 2014

  Actual Average Record
Temperature  
Mean Temperature 22 °F -  
Max Temperature 26 °F 33 °F 64 °F (2002)
Min Temperature 17 °F 12 °F -4 °F (2005)
Degree Days  
Heating Degree Days 44    
Moisture  
Dew Point 19 °F    
Average Humidity 88    
Maximum Humidity 94    
Minimum Humidity 78    
Precipitation  
Precipitation 0.01 in - - ()
Sea Level Pressure  
Sea Level Pressure 30.15 in    
Wind  
Wind Speed 8 mph (SE)    
Max Wind Speed 23 mph    
Max Gust Speed 28 mph    
Visibility 9 miles    
Events Snow    
Averages and records for this station are not official NWS values.
T = Trace of Precipitation, MM = Missing Value Source: NWS Daily Summary

Daily Weather History Graph

Daily Weather History Graph

Search for Another Location

Airport or City:

Trip Planner

Search our weather history database for the weather conditions in past years. The results will help you decide how hot, cold, wet, or windy it might be!

Date:

Astronomy

Jan. 08, 2014 Rise Set
Actual Time 8:09 AM CST 5:24 PM CST
Civil Twilight 7:37 AM CST 5:55 PM CST
Nautical Twilight 7:02 AM CST 6:31 PM CST
Astronomical Twilight 6:28 AM CST 7:05 PM CST
Moon 12:21 PM CST (1/8) 1:12 AM CST (1/8)
Length of Visible Light 10h 17m
Length of Day
9h 14m
First Quarter, 56% of the Moon is Illuminated
Jan 8
First Quarter
Jan 15
Full
Jan 23
Last Quarter
Jan 30
New
Feb 6
First Quarter

Hourly Weather History & Observations

Time (CST) Temp. Windchill Dew Point Humidity Pressure Visibility Wind Dir Wind Speed Gust Speed Precip Events Conditions
12:15 AM 21.0 °F 16.2 °F 19.2 °F 93% 30.12 in 7.0 mi ESE 3.5 mph - N/A   Overcast
12:35 AM 21.0 °F - 19.2 °F 93% 30.12 in 3.0 mi Calm Calm - N/A Snow Light Snow
12:55 AM 21.2 °F - 19.4 °F 93% 30.12 in 1.8 mi Calm Calm - N/A Snow Light Snow
1:15 AM 21.0 °F 16.2 °F 19.4 °F 93% 30.12 in 2.0 mi ESE 3.5 mph - N/A Snow Light Snow
1:35 AM 20.7 °F 14.2 °F 18.9 °F 93% 30.12 in 2.5 mi East 4.6 mph - N/A Snow Light Snow
1:55 AM 20.7 °F 15.8 °F 18.9 °F 93% 30.12 in 2.5 mi East 3.5 mph - N/A Snow Light Snow
2:15 AM 20.8 °F - 19.0 °F 93% 30.13 in 2.0 mi Calm Calm - N/A Snow Light Snow
2:35 AM 20.8 °F 14.4 °F 19.2 °F 93% 30.14 in 1.8 mi East 4.6 mph - N/A Snow Light Snow
2:55 AM 20.3 °F 13.8 °F 18.9 °F 94% 30.14 in 3.0 mi East 4.6 mph - N/A Snow Light Snow
3:15 AM 20.3 °F 15.4 °F 18.5 °F 93% 30.15 in 2.5 mi East 3.5 mph - N/A Snow Light Snow
3:35 AM 20.3 °F 12.5 °F 18.9 °F 94% 30.15 in 2.5 mi East 5.8 mph - N/A Snow Light Snow
3:55 AM 19.9 °F 13.4 °F 18.3 °F 93% 30.15 in 5.0 mi East 4.6 mph - 0.01 in Snow Light Snow
4:15 AM 19.4 °F 11.5 °F 18.0 °F 94% 30.15 in 5.0 mi East 5.8 mph - N/A Snow Light Snow
4:35 AM 19.2 °F 11.3 °F 17.6 °F 93% 30.15 in 4.0 mi East 5.8 mph - N/A Snow Light Snow
4:55 AM 18.5 °F 9.3 °F 16.7 °F 93% 30.14 in 5.0 mi East 6.9 mph - N/A Snow Light Snow
5:15 AM 18.5 °F 9.3 °F 16.7 °F 93% 30.14 in 10.0 mi East 6.9 mph - N/A Snow Light Snow
5:35 AM 18.1 °F 8.9 °F 16.3 °F 93% 30.15 in 10.0 mi East 6.9 mph - N/A Snow Light Snow
5:55 AM 18.0 °F 8.7 °F 15.8 °F 91% 30.15 in 10.0 mi East 6.9 mph - N/A Snow Light Snow
6:15 AM 17.6 °F 8.2 °F 15.6 °F 92% 30.15 in 10.0 mi East 6.9 mph - N/A   Overcast
6:35 AM 17.4 °F 8.0 °F 15.4 °F 92% 30.15 in 10.0 mi East 6.9 mph - N/A   Overcast
6:55 AM 17.4 °F 7.1 °F 15.4 °F 92% 30.15 in 10.0 mi East 8.1 mph - N/A   Overcast
7:15 AM 17.4 °F 8.0 °F 15.4 °F 92% 30.16 in 10.0 mi East 6.9 mph - N/A   Overcast
7:35 AM 17.6 °F 8.2 °F 15.4 °F 91% 30.15 in 10.0 mi ESE 6.9 mph - N/A   Overcast
7:55 AM 17.8 °F 7.5 °F 15.4 °F 91% 30.16 in 10.0 mi ESE 8.1 mph - N/A   Overcast
8:15 AM 18.0 °F 9.8 °F 15.4 °F 90% 30.17 in 10.0 mi ESE 5.8 mph - N/A   Overcast
8:35 AM 18.0 °F 8.7 °F 15.3 °F 89% 30.18 in 10.0 mi ESE 6.9 mph - N/A   Overcast
8:55 AM 18.1 °F 8.9 °F 15.3 °F 88% 30.20 in 10.0 mi ESE 6.9 mph - N/A   Overcast
9:15 AM 18.5 °F 8.4 °F 15.6 °F 89% 30.20 in 10.0 mi SE 8.1 mph - N/A   Overcast
9:35 AM 18.9 °F 8.0 °F 15.6 °F 87% 30.20 in 10.0 mi SE 9.2 mph - N/A   Overcast
9:55 AM 19.2 °F 8.4 °F 15.1 °F 84% 30.22 in 10.0 mi ESE 9.2 mph - N/A   Overcast
10:15 AM 19.8 °F 9.1 °F 15.8 °F 85% 30.23 in 10.0 mi ESE 9.2 mph - N/A   Overcast
10:35 AM 19.9 °F 9.3 °F 15.8 °F 84% 30.23 in 10.0 mi SE 9.2 mph - N/A   Overcast
10:55 AM 20.7 °F 8.8 °F 16.7 °F 85% 30.22 in 10.0 mi SE 11.5 mph - N/A   Overcast
11:15 AM 21.0 °F 9.9 °F 16.5 °F 83% 30.22 in 10.0 mi SE 10.4 mph - N/A   Overcast
11:35 AM 21.2 °F 10.9 °F 16.9 °F 83% 30.22 in 10.0 mi SE 9.2 mph - N/A   Overcast
11:55 AM 21.7 °F 10.2 °F 17.1 °F 82% 30.20 in 10.0 mi SSE 11.5 mph - N/A   Overcast
12:15 PM 22.3 °F 10.2 °F 17.6 °F 82% 30.19 in 10.0 mi South 12.7 mph - N/A   Overcast
12:35 PM 22.3 °F 11.5 °F 17.6 °F 82% 30.19 in 10.0 mi SSE 10.4 mph - N/A   Overcast
12:55 PM 23.2 °F 12.0 °F 18.5 °F 82% 30.18 in 10.0 mi South 11.5 mph - N/A   Overcast
1:15 PM 23.4 °F 11.1 °F 18.5 °F 82% 30.17 in 10.0 mi SSE 13.8 mph - N/A   Overcast
1:35 PM 23.9 °F 11.7 °F 18.9 °F 81% 30.16 in 10.0 mi South 13.8 mph - N/A   Overcast
1:55 PM 24.6 °F 13.2 °F 19.4 °F 81% 30.15 in 10.0 mi SSE 12.7 mph - N/A   Overcast
2:15 PM 24.8 °F 14.0 °F 19.4 °F 80% 30.15 in 10.0 mi South 11.5 mph - N/A   Overcast
2:35 PM 25.2 °F 14.4 °F 19.8 °F 80% 30.15 in 10.0 mi SSE 11.5 mph - N/A   Overcast
2:55 PM 25.7 °F 15.1 °F 20.1 °F 79% 30.15 in 10.0 mi SSE 11.5 mph - N/A   Overcast
3:15 PM 26.2 °F 14.7 °F 20.5 °F 79% 30.14 in 10.0 mi South 13.8 mph - N/A   Overcast
3:35 PM 26.6 °F 15.2 °F 20.8 °F 79% 30.14 in 10.0 mi SSE 13.8 mph - N/A   Overcast
3:55 PM 26.4 °F 14.5 °F 20.5 °F 78% 30.14 in 10.0 mi SSE 15.0 mph - N/A   Overcast
4:15 PM 26.1 °F 14.5 °F 20.5 °F 79% 30.14 in 10.0 mi South 13.8 mph 17.3 mph N/A   Overcast
4:35 PM 26.4 °F 15.0 °F 20.8 °F 79% 30.14 in 10.0 mi SSE 13.8 mph - N/A   Overcast
4:55 PM 26.2 °F 13.8 °F 20.8 °F 80% 30.13 in 10.0 mi SSE 16.1 mph - N/A   Overcast
5:15 PM 26.1 °F 16.2 °F 20.8 °F 81% 30.13 in 10.0 mi SSE 10.4 mph 16.1 mph N/A   Overcast
5:35 PM 26.1 °F 15.6 °F 21.0 °F 81% 30.13 in 10.0 mi South 11.5 mph - N/A   Overcast
5:55 PM 25.7 °F 15.1 °F 20.8 °F 82% 30.13 in 10.0 mi SSE 11.5 mph - N/A   Overcast
6:15 PM 25.3 °F 14.1 °F 20.3 °F 81% 30.13 in 10.0 mi SSE 12.7 mph 19.6 mph N/A   Overcast
6:35 PM 25.2 °F 13.9 °F 20.5 °F 82% 30.13 in 10.0 mi SSE 12.7 mph - N/A   Overcast
6:55 PM 24.8 °F 13.4 °F 20.3 °F 83% 30.13 in 10.0 mi SSE 12.7 mph - N/A   Overcast
7:15 PM 23.9 °F 12.3 °F 19.9 °F 85% 30.12 in 10.0 mi SSE 12.7 mph - N/A   Overcast
7:35 PM 22.8 °F 10.9 °F 19.4 °F 87% 30.12 in 10.0 mi SSE 12.7 mph - N/A   Scattered Clouds
7:55 PM 22.6 °F 11.3 °F 19.4 °F 87% 30.13 in 10.0 mi South 11.5 mph - N/A   Clear
8:15 PM 22.1 °F 10.0 °F 19.4 °F 89% 30.13 in 10.0 mi South 12.7 mph - N/A   Clear
8:35 PM 22.3 °F 10.2 °F 20.1 °F 91% 30.12 in 10.0 mi South 12.7 mph - N/A   Clear
8:55 PM 22.5 °F 9.4 °F 19.9 °F 90% 30.12 in 10.0 mi South 15.0 mph 18.4 mph N/A   Clear
9:15 PM 22.5 °F 9.4 °F 19.9 °F 90% 30.12 in 10.0 mi South 15.0 mph 19.6 mph N/A   Clear
9:35 PM 21.9 °F 8.7 °F 19.4 °F 90% 30.11 in 10.0 mi South 15.0 mph - N/A   Clear
9:55 PM 21.7 °F 8.5 °F 19.4 °F 91% 30.10 in 10.0 mi South 15.0 mph - N/A   Clear
10:15 PM 23.2 °F 8.6 °F 21.4 °F 93% 30.10 in 10.0 mi South 19.6 mph 24.2 mph N/A   Mostly Cloudy
10:35 PM 23.9 °F 10.3 °F 22.1 °F 93% 30.09 in 10.0 mi South 17.3 mph 26.5 mph N/A   Overcast
10:55 PM 24.4 °F 9.2 °F 22.6 °F 93% 30.09 in 10.0 mi South 23.0 mph 27.6 mph N/A   Overcast
11:15 PM 24.8 °F 10.0 °F 23.0 °F 93% 30.08 in 10.0 mi South 21.9 mph 26.5 mph N/A   Overcast
11:35 PM 25.3 °F 10.7 °F 23.9 °F 94% 30.08 in 10.0 mi South 21.9 mph 26.5 mph N/A   Overcast
11:55 PM 25.2 °F 10.4 °F 23.7 °F 94% 30.07 in 10.0 mi South 21.9 mph - N/A   Overcast